Weather History for St. Francis, KS

Change the Weather History Date:

Tuesday, December 3, 2013

  Actual Average Record
Temperature  
Mean Temperature 40 °F -  
Max Temperature 60 °F 44 °F 60 °F (2013)
Min Temperature 21 °F 18 °F 21 °F (2013)
Degree Days  
Heating Degree Days 24    
Moisture  
Dew Point 22 °F    
Average Humidity 57    
Maximum Humidity 83    
Minimum Humidity 23    
Precipitation  
Precipitation 0.00 in - - ()
Sea Level Pressure  
Sea Level Pressure 29.57 in    
Wind  
Wind Speed 11 mph (WSW)    
Max Wind Speed 24 mph    
Max Gust Speed 30 mph    
Visibility 10 miles    
Events      
Averages and records for this station are not official NWS values.
T = Trace of Precipitation, MM = Missing Value Source: NWS Daily Summary

Daily Weather History Graph

Daily Weather History Graph

Search for Another Location

Airport:

Trip Planner

Search our weather history database for the weather conditions in past years. The results will help you decide how hot, cold, wet, or windy it might be!

Date:

Astronomy

Dec. 03, 2013 Rise Set
Actual Time 7:51 AM CST 5:22 PM CST
Civil Twilight 7:21 AM CST 5:52 PM CST
Nautical Twilight 6:47 AM CST 6:26 PM CST
Astronomical Twilight 6:15 AM CST 6:58 PM CST
Moon 8:22 AM CST (12/3) 6:28 PM CST (12/3)
Length of Visible Light 10h 31m
Length of Day
9h 31m
New Moon, 1% of the Moon is Illuminated
Dec 3
New Moon
Dec 9
First Quarter
Dec 17
Full
Dec 25
Last Quarter
Jan 1
New

Hourly Weather History & Observations

Time (CST) Temp. Windchill Dew Point Humidity Pressure Visibility Wind Dir Wind Speed Gust Speed Precip Events Conditions
12:15 AM 40.5 °F 35.8 °F 23.0 °F 50% 29.57 in 10.0 mi SW 6.9 mph - N/A   Overcast
12:35 AM 41.0 °F 37.1 °F 22.5 °F 48% 29.56 in 10.0 mi SW 5.8 mph - N/A   Overcast
12:55 AM 38.7 °F 35.2 °F 22.6 °F 53% 29.57 in 10.0 mi WSW 4.6 mph - N/A   Scattered Clouds
1:15 AM 39.4 °F 34.5 °F 23.0 °F 52% 29.56 in 10.0 mi SW 6.9 mph - N/A   Scattered Clouds
1:35 AM 39.2 °F 33.0 °F 23.0 °F 52% 29.57 in 10.0 mi SW 9.2 mph - N/A   Scattered Clouds
1:55 AM 39.4 °F 34.5 °F 22.5 °F 51% 29.57 in 10.0 mi SW 6.9 mph - N/A   Scattered Clouds
2:15 AM 39.6 °F 34.7 °F 22.3 °F 50% 29.56 in 10.0 mi SW 6.9 mph - N/A   Scattered Clouds
2:35 AM 38.5 °F 32.7 °F 22.1 °F 52% 29.56 in 10.0 mi SW 8.1 mph - N/A   Scattered Clouds
2:55 AM 37.6 °F 31.6 °F 22.1 °F 54% 29.56 in 10.0 mi WSW 8.1 mph - N/A   Clear
3:15 AM 36.9 °F 31.4 °F 22.1 °F 55% 29.56 in 10.0 mi SW 6.9 mph - N/A   Clear
3:35 AM 34.9 °F 29.0 °F 21.9 °F 59% 29.57 in 10.0 mi WSW 6.9 mph - N/A   Clear
3:55 AM 33.8 °F 27.7 °F 21.7 °F 61% 29.56 in 10.0 mi WSW 6.9 mph - N/A   Clear
4:15 AM 33.1 °F 26.1 °F 21.7 °F 63% 29.55 in 10.0 mi WSW 8.1 mph - N/A   Clear
4:35 AM 32.0 °F 23.6 °F 21.6 °F 65% 29.54 in 10.0 mi SW 10.4 mph - N/A   Clear
4:55 AM 33.3 °F 25.1 °F 21.9 °F 63% 29.53 in 10.0 mi SW 10.4 mph - N/A   Clear
5:15 AM 33.3 °F 25.1 °F 21.7 °F 63% 29.53 in 10.0 mi WSW 10.4 mph - N/A   Clear
5:35 AM 32.0 °F 23.6 °F 21.6 °F 65% 29.53 in 10.0 mi WSW 10.4 mph - N/A   Clear
5:55 AM 30.7 °F 26.0 °F 21.0 °F 67% 29.52 in 10.0 mi SSW 4.6 mph - N/A   Clear
6:15 AM 28.9 °F 22.8 °F 20.8 °F 72% 29.52 in 10.0 mi SW 5.8 mph - N/A   Clear
6:35 AM 30.0 °F 23.2 °F 20.8 °F 69% 29.52 in 10.0 mi WSW 6.9 mph - N/A   Clear
6:55 AM 28.6 °F 19.9 °F 20.7 °F 72% 29.52 in 10.0 mi SW 9.2 mph - N/A   Clear
7:15 AM 28.8 °F 20.9 °F 21.2 °F 73% 29.52 in 10.0 mi SW 8.1 mph - N/A   Clear
7:35 AM 28.9 °F 22.8 °F 21.0 °F 72% 29.52 in 10.0 mi SW 5.8 mph - N/A   Clear
7:55 AM 28.6 °F 21.5 °F 21.0 °F 73% 29.53 in 10.0 mi WSW 6.9 mph - N/A   Clear
8:15 AM 28.8 °F 21.7 °F 21.6 °F 74% 29.52 in 10.0 mi WSW 6.9 mph - N/A   Clear
8:35 AM 30.0 °F 25.2 °F 22.1 °F 72% 29.52 in 10.0 mi West 4.6 mph - N/A   Clear
8:55 AM 33.4 °F - 24.3 °F 69% 29.52 in 10.0 mi Calm Calm - N/A   Clear
9:15 AM 38.1 °F - 26.4 °F 63% 29.52 in 10.0 mi Calm Calm - N/A   Clear
9:35 AM 46.8 °F - 26.4 °F 45% 29.52 in 10.0 mi South 5.8 mph - N/A   Clear
9:55 AM 48.4 °F - 26.4 °F 42% 29.52 in 10.0 mi South 5.8 mph - N/A   Clear
10:15 AM 49.5 °F - 26.2 °F 40% 29.52 in 10.0 mi South 9.2 mph - N/A   Clear
10:35 AM 51.6 °F - 26.8 °F 38% 29.53 in 10.0 mi South 5.8 mph - N/A   Clear
10:55 AM 53.6 °F - 27.0 °F 36% 29.55 in 10.0 mi South 9.2 mph - N/A   Clear
11:15 AM 55.6 °F - 26.4 °F 33% 29.54 in 10.0 mi South 12.7 mph 17.3 mph N/A   Clear
11:35 AM 57.0 °F - 25.7 °F 30% 29.53 in 10.0 mi SSE 16.1 mph - N/A   Clear
11:55 AM 59.4 °F - 24.1 °F 26% 29.51 in 10.0 mi SSE 19.6 mph 25.3 mph N/A   Clear
12:15 PM 58.8 °F - 23.4 °F 26% 29.49 in 10.0 mi SSE 19.6 mph 24.2 mph N/A   Clear
12:35 PM 58.5 °F - 23.5 °F 26% 29.49 in 10.0 mi SSE 17.3 mph - N/A   Clear
12:55 PM 58.6 °F - 23.0 °F 25% 29.47 in 10.0 mi SSE 18.4 mph - N/A   Clear
1:15 PM 58.8 °F - 23.0 °F 25% 29.47 in 10.0 mi SSE 17.3 mph 21.9 mph N/A   Clear
1:35 PM 59.9 °F - 23.0 °F 24% 29.46 in 10.0 mi SE 21.9 mph - N/A   Clear
1:55 PM 59.5 °F - 23.0 °F 25% 29.45 in 10.0 mi SE 18.4 mph 21.9 mph N/A   Clear
2:15 PM 59.9 °F - 23.5 °F 25% 29.45 in 10.0 mi SE 17.3 mph - N/A   Clear
2:35 PM 60.3 °F - 22.5 °F 23% 29.46 in 10.0 mi ESE 11.5 mph - N/A   Clear
2:55 PM 58.8 °F - 24.4 °F 27% 29.46 in 10.0 mi ENE 17.3 mph 21.9 mph N/A   Clear
3:15 PM 51.1 °F - 27.5 °F 40% 29.48 in 10.0 mi NE 15.0 mph 20.7 mph N/A   Clear
3:35 PM 49.5 °F - 28.4 °F 44% 29.50 in 10.0 mi NNE 19.6 mph - N/A   Clear
3:55 PM 44.4 °F 36.1 °F 28.4 °F 53% 29.52 in 10.0 mi NNE 20.7 mph 28.8 mph N/A   Clear
4:15 PM 40.8 °F 31.4 °F 28.4 °F 61% 29.53 in 10.0 mi NNE 20.7 mph - N/A   Clear
4:35 PM 36.9 °F 26.2 °F 28.4 °F 71% 29.55 in 10.0 mi North 20.7 mph 27.6 mph N/A   Scattered Clouds
4:55 PM 34.9 °F 23.3 °F 28.2 °F 77% 29.56 in 10.0 mi NNE 21.9 mph 27.6 mph N/A   Mostly Cloudy
5:15 PM 33.4 °F 21.7 °F 28.2 °F 81% 29.57 in 10.0 mi NNE 20.7 mph 29.9 mph N/A   Overcast
5:35 PM 32.5 °F 19.9 °F 28.0 °F 83% 29.57 in 10.0 mi NNE 23.0 mph 28.8 mph N/A   Overcast
5:55 PM 32.0 °F 19.5 °F 27.5 °F 83% 29.58 in 10.0 mi NNE 21.9 mph 27.6 mph N/A   Overcast
6:15 PM 30.9 °F 17.8 °F 25.9 °F 82% 29.60 in 10.0 mi NNE 23.0 mph 29.9 mph N/A   Overcast
6:35 PM 30.4 °F 17.7 °F 24.6 °F 79% 29.62 in 10.0 mi NNE 20.7 mph 26.5 mph N/A   Overcast
6:55 PM 29.5 °F 16.8 °F 22.8 °F 76% 29.65 in 10.0 mi North 19.6 mph 25.3 mph N/A   Overcast
7:15 PM 28.8 °F 15.9 °F 21.7 °F 75% 29.67 in 10.0 mi North 19.6 mph 24.2 mph N/A   Overcast
7:35 PM 27.5 °F 14.2 °F 19.4 °F 72% 29.68 in 10.0 mi North 19.6 mph 25.3 mph N/A   Overcast
7:55 PM 26.6 °F 12.7 °F 18.7 °F 72% 29.69 in 10.0 mi North 20.7 mph 24.2 mph N/A   Overcast
8:15 PM 26.1 °F 12.7 °F 17.8 °F 71% 29.70 in 10.0 mi North 18.4 mph 25.3 mph N/A   Overcast
8:35 PM 25.7 °F 12.7 °F 17.4 °F 71% 29.70 in 10.0 mi North 17.3 mph 24.2 mph N/A   Overcast
8:55 PM 24.8 °F 10.7 °F 16.5 °F 71% 29.71 in 10.0 mi North 19.6 mph 25.3 mph N/A   Overcast
9:15 PM 24.8 °F 11.9 °F 15.8 °F 69% 29.71 in 10.0 mi North 16.1 mph 25.3 mph N/A   Overcast
9:35 PM 24.6 °F 11.7 °F 16.2 °F 70% 29.72 in 10.0 mi North 16.1 mph - N/A   Overcast
9:55 PM 24.6 °F 10.5 °F 15.8 °F 69% 29.72 in 10.0 mi North 19.6 mph 25.3 mph N/A   Overcast
10:15 PM 24.4 °F 10.2 °F 15.6 °F 69% 29.73 in 10.0 mi North 19.6 mph 28.8 mph N/A   Overcast
10:35 PM 23.9 °F 9.9 °F 14.9 °F 69% 29.73 in 10.0 mi North 18.4 mph 26.5 mph N/A   Overcast
10:55 PM 23.0 °F 8.0 °F 13.8 °F 68% 29.73 in 10.0 mi North 20.7 mph 28.8 mph N/A   Overcast
11:15 PM 22.6 °F 8.7 °F 13.6 °F 68% 29.75 in 10.0 mi North 17.3 mph 25.3 mph N/A   Overcast
11:35 PM 21.9 °F 6.5 °F 13.8 °F 71% 29.74 in 10.0 mi North 20.7 mph 27.6 mph N/A   Overcast
11:55 PM 21.0 °F 4.3 °F 13.6 °F 73% 29.73 in 10.0 mi North 24.2 mph 28.8 mph N/A   Overcast